CW7104 Weather Reports


Display with metric or nautical units.
time (UTC)temp
F
wind
direction
speed
MPH
gust
MPH
rain 1hr
in
rain 24hr
in
rain mn
in
humidity
%
barometer
mb
20260505124904 64 165 0.0 0.0 0.00 0.00 0.00 63 1008.0
20260505124404 64 165 0.0 0.0 0.00 0.00 0.00 64 1008.0
20260505123904 64 175 0.0 0.0 0.00 0.00 0.00 64 1007.9
20260505123403 64 149 0.0 0.0 0.00 0.00 0.00 64 1007.8
20260505122404 64 147 0.0 0.0 0.00 0.00 0.00 65 1007.9
20260505121903 64 144 0.0 0.0 0.00 0.00 0.00 65 1007.8
20260505121404 63 144 0.0 0.0 0.00 0.00 0.00 65 1007.9
20260505120904 63 144 0.0 0.0 0.00 0.00 0.00 65 1008.0
20260505120403 63 144 0.0 0.0 0.00 0.00 0.00 65 1008.0
20260505115904 63 144 0.0 0.0 0.00 0.00 0.00 65 1008.0
20260505115404 64 144 0.0 0.0 0.00 0.00 0.00 64 1008.0
20260505114904 64 144 0.0 0.0 0.00 0.00 0.00 64 1008.0
20260505114403 64 144 0.0 0.0 0.00 0.00 0.00 64 1007.9
20260505113904 64 144 0.0 0.0 0.00 0.00 0.00 63 1007.8
20260505113404 64 144 0.0 0.0 0.00 0.00 0.00 63 1007.9
20260505112904 64 144 0.0 0.0 0.00 0.00 0.00 63 1007.8
20260505112403 64 144 0.0 0.0 0.00 0.00 0.00 62 1007.7
20260505111904 64 143 0.0 0.0 0.00 0.00 0.00 62 1007.5
20260505110404 64 142 0.0 0.0 0.00 0.00 0.00 61 1007.4
20260505101404 65 221 0.0 0.0 0.00 0.00 0.00 60 1007.3
20260505100903 65 220 0.0 1.0 0.00 0.00 0.00 60 1007.2
20260505095903 65 190 2.0 8.0 0.00 0.00 0.00 60 1007.0
20260505095403 65 173 0.0 8.0 0.00 0.00 0.00 60 1007.0
20260505094904 65 198 0.0 0.0 0.00 0.00 0.00 60 1007.1
20260505094404 65 178 0.0 0.0 0.00 0.00 0.00 60 1007.1
20260505093903 65 171 0.0 0.0 0.00 0.00 0.00 60 1007.1
20260505092903 65 199 0.0 0.0 0.00 0.00 0.00 60 1007.3
20260505091903 65 171 0.0 0.0 0.00 0.00 0.00 60 1007.3
20260505090405 64 155 0.0 0.0 0.00 0.00 0.00 61 1007.4
20260505085905 64 201 0.0 0.0 0.00 0.00 0.00 61 1007.3
20260505085405 64 250 1.0 10.0 0.00 0.00 0.00 61 1007.3
20260505084905 64 164 0.0 0.0 0.00 0.00 0.00 61 1007.2
20260505084405 64 233 1.0 7.0 0.00 0.00 0.00 61 1007.2
20260505083905 65 188 0.0 2.0 0.00 0.00 0.00 60 1007.2
20260505083405 65 206 0.0 1.0 0.00 0.00 0.00 60 1007.2
20260505082905 65 243 0.0 0.0 0.00 0.00 0.00 60 1007.3
20260505081905 65 231 0.0 3.0 0.00 0.00 0.00 59 1007.2
20260505080405 65 179 0.0 1.0 0.00 0.00 0.00 58 1007.1
20260505075905 65 217 1.0 8.0 0.00 0.00 0.00 58 1007.1
20260505075405 65 229 2.0 10.0 0.00 0.00 0.00 58 1007.0
20260505074905 66 174 2.0 9.0 0.00 0.00 0.00 57 1007.1
20260505074405 66 176 3.0 8.0 0.00 0.00 0.00 57 1007.1
20260505073905 66 166 0.0 10.0 0.00 0.00 0.00 57 1007.2
20260505073405 66 168 1.0 10.0 0.00 0.00 0.00 57 1007.1
20260505072905 66 234 3.0 8.0 0.00 0.00 0.00 56 1007.1
20260505072405 66 187 2.0 8.0 0.00 0.00 0.00 56 1007.1
20260505071905 66 178 3.0 12.0 0.00 0.00 0.00 56 1007.2
20260505071405 66 239 1.0 10.0 0.00 0.00 0.00 55 1007.2
20260505070905 66 350 1.0 8.0 0.00 0.00 0.00 55 1007.2
20260505065905 66 256 4.0 8.0 0.00 0.00 0.00 56 1007.2
20260505065405 66 172 3.0 9.0 0.00 0.00 0.00 56 1007.2
20260505064905 66 239 4.0 9.0 0.00 0.00 0.00 55 1007.2
20260505064405 66 197 1.0 9.0 0.00 0.00 0.00 55 1007.2
20260505063405 67 222 4.0 12.0 0.00 0.00 0.00 55 1007.0
20260505062905 67 298 1.0 8.0 0.00 0.00 0.00 54 1007.0
20260505062405 67 207 2.0 15.0 0.00 0.00 0.00 53 1006.9
20260505061905 67 176 6.0 13.0 0.00 0.00 0.00 53 1006.9
20260505061405 67 159 7.0 14.0 0.00 0.00 0.00 53 1006.8
20260505060906 67 223 3.0 14.0 0.00 0.00 0.00 53 1006.8
20260505060406 67 239 6.0 14.0 0.00 0.00 0.00 53 1006.8
20260505055405 67 165 3.0 10.0 0.00 0.00 0.00 53 1006.7
20260505054905 67 205 4.0 10.0 0.00 0.00 0.00 53 1006.8
20260505054405 67 186 2.0 9.0 0.00 0.00 0.00 53 1006.7
20260505053905 67 254 5.0 10.0 0.00 0.00 0.00 52 1006.6
20260505052905 67 179 5.0 10.0 0.00 0.00 0.00 52 1006.6
20260505052405 67 161 3.0 9.0 0.00 0.00 0.00 52 1006.6
20260505051905 67 194 2.0 8.0 0.00 0.00 0.00 52 1006.6
20260505051405 67 160 5.0 9.0 0.00 0.00 0.00 52 1006.6
20260505050905 68 196 2.0 9.0 0.00 0.00 0.00 51 1006.6
20260505050405 68 245 1.0 8.0 0.00 0.00 0.00 51 1006.6
20260505041405 69 308 5.0 9.0 0.00 0.00 0.00 48 1006.5
20260505040905 69 186 5.0 9.0 0.00 0.00 0.00 48 1006.5
20260505040405 70 156 4.0 9.0 0.00 0.00 0.00 48 1006.5
20260505035905 70 218 3.0 10.0 0.00 0.00 0.00 48 1006.6
20260505034905 70 227 3.0 13.0 0.00 0.00 0.00 47 1006.4
20260505034405 69 153 5.0 12.0 0.00 0.00 0.00 48 1006.4
20260505033405 69 178 3.0 12.0 0.00 0.00 0.00 49 1006.6
20260505032905 69 295 0.0 6.0 0.00 0.00 0.00 49 1006.7
20260505032404 70 185 2.0 9.0 0.00 0.00 0.00 48 1006.9
20260505031906 70 235 1.0 8.0 0.00 0.00 0.00 48 1006.9
20260505031405 70 182 1.0 8.0 0.00 0.00 0.00 48 1006.9
20260505030905 70 178 0.0 7.0 0.00 0.00 0.00 48 1007.0
20260505030405 70 209 0.0 8.0 0.00 0.00 0.00 47 1006.9
20260505025406 71 160 0.0 8.0 0.00 0.00 0.00 47 1006.8
20260505024904 71 174 3.0 9.0 0.00 0.00 0.00 46 1006.8
20260505024405 71 274 5.0 9.0 0.00 0.00 0.00 46 1006.8
20260505022405 71 194 2.0 10.0 0.00 0.00 0.00 46 1006.6
20260505021905 71 203 3.0 9.0 0.00 0.00 0.00 45 1006.5
20260505020905 71 219 3.0 8.0 0.00 0.00 0.00 45 1006.4
20260505020404 72 169 3.0 9.0 0.00 0.00 0.00 45 1006.4
20260505015905 72 183 0.0 7.0 0.00 0.00 0.00 45 1006.3
20260505015405 72 192 2.0 9.0 0.00 0.00 0.00 44 1006.2
20260505014904 72 151 0.0 9.0 0.00 0.00 0.00 44 1006.3
20260505014404 72 237 1.0 8.0 0.00 0.00 0.00 43 1006.2
20260505013905 72 212 3.0 12.0 0.00 0.00 0.00 43 1006.1
20260505013404 73 175 2.0 12.0 0.00 0.00 0.00 43 1006.0
20260505012904 73 230 5.0 12.0 0.00 0.00 0.00 43 1006.0
20260505012404 73 269 5.0 12.0 0.00 0.00 0.00 43 1005.8
20260505011904 73 166 4.0 12.0 0.00 0.00 0.00 42 1005.7
20260505011405 73 178 3.0 8.0 0.00 0.00 0.00 42 1005.6
20260505010905 73 166 0.0 1.0 0.00 0.00 0.00 42 1005.7
20260505010405 73 191 3.0 12.0 0.00 0.00 0.00 41 1005.6
20260505005904 73 180 2.0 13.0 0.00 0.00 0.00 42 1005.6
20260505005404 74 173 0.0 7.0 0.00 0.00 0.00 41 1005.6
20260505004405 74 197 2.0 6.0 0.00 0.00 0.00 40 1005.4
20260505003905 74 199 6.0 12.0 0.00 0.00 0.00 40 1005.3
20260505003405 75 350 4.0 12.0 0.00 0.00 0.00 39 1005.3
20260505002904 75 259 3.0 9.0 0.00 0.00 0.00 39 1005.2
20260505001905 76 206 2.0 14.0 0.00 0.00 0.00 38 1005.2
20260505001404 76 173 2.0 9.0 0.00 0.00 0.00 38 1005.2
20260505000905 77 281 1.0 10.0 0.00 0.00 0.00 37 1005.1
20260504235904 78 157 8.0 20.0 0.00 0.00 0.00 35 1004.9
20260504235404 78 234 3.0 12.0 0.00 0.00 0.00 36 1004.8
20260504234904 78 144 5.0 14.0 0.00 0.00 0.00 35 1004.9
20260504234405 78 144 0.0 10.0 0.00 0.00 0.00 36 1005.0
20260504233904 78 165 6.0 13.0 0.00 0.00 0.00 35 1005.0
20260504233405 78 172 5.0 24.0 0.00 0.00 0.00 35 1005.1
20260504232905 78 176 5.0 15.0 0.00 0.00 0.00 36 1005.2
20260504232405 78 154 5.0 13.0 0.00 0.00 0.00 36 1005.3
20260504231905 77 157 5.0 14.0 0.00 0.00 0.00 36 1005.4
20260504231405 77 174 0.0 12.0 0.00 0.00 0.00 35 1005.5
20260504230904 77 175 3.0 14.0 0.00 0.00 0.00 34 1005.8
20260504230404 77 217 6.0 13.0 0.00 0.00 0.00 34 1005.7
20260504225905 78 144 1.0 12.0 0.00 0.00 0.00 35 1005.8
20260504224904 78 203 1.0 9.0 0.00 0.00 0.00 34 1006.7
20260504224405 79 188 2.0 9.0 0.00 0.00 0.00 34 1006.7
20260504223905 79 215 1.0 7.0 0.00 0.00 0.00 34 1006.8
20260504223404 79 152 1.0 7.0 0.00 0.00 0.00 35 1006.8
20260504222904 78 173 2.0 8.0 0.00 0.00 0.00 34 1007.0
20260504222405 78 223 2.0 13.0 0.00 0.00 0.00 33 1007.1
20260504221905 78 188 2.0 8.0 0.00 0.00 0.00 33 1007.3
20260504221405 78 233 1.0 9.0 0.00 0.00 0.00 35 1007.3
20260504220904 78 210 3.0 12.0 0.00 0.00 0.00 35 1007.4
20260504220404 78 310 2.0 8.0 0.00 0.00 0.00 36 1007.6
20260504215905 78 168 1.0 9.0 0.00 0.00 0.00 36 1007.6
20260504215404 78 221 1.0 6.0 0.00 0.00 0.00 36 1007.8
20260504214904 78 256 0.0 8.0 0.00 0.00 0.00 35 1007.8
20260504214405 78 245 2.0 8.0 0.00 0.00 0.00 35 1007.8
20260504213905 78 148 3.0 12.0 0.00 0.00 0.00 34 1007.8
20260504213404 78 245 1.0 7.0 0.00 0.00 0.00 34 1007.8
20260504212404 79 212 2.0 14.0 0.00 0.00 0.00 37 1007.7
20260504211904 79 207 1.0 5.0 0.00 0.00 0.00 36 1007.7
20260504210904 79 288 1.0 9.0 0.00 0.00 0.00 36 1007.7
20260504205904 79 263 2.0 7.0 0.00 0.00 0.00 35 1007.7
20260504205404 80 332 2.0 12.0 0.00 0.00 0.00 34 1007.7
20260504204904 80 163 2.0 12.0 0.00 0.00 0.00 35 1007.6
20260504204404 80 292 3.0 14.0 0.00 0.00 0.00 34 1007.5
20260504203905 80 235 3.0 9.0 0.00 0.00 0.00 34 1007.5
20260504202904 81 300 2.0 12.0 0.00 0.00 0.00 34 1007.5
20260504202404 81 182 2.0 12.0 0.00 0.00 0.00 35 1007.5
20260504201904 81 229 3.0 22.0 0.00 0.00 0.00 34 1007.5
20260504200904 82 270 2.0 12.0 0.00 0.00 0.00 36 1007.6
20260504200404 81 247 3.0 16.0 0.00 0.00 0.00 38 1007.6
20260504195404 80 247 1.0 10.0 0.00 0.00 0.00 39 1007.6
20260504194904 80 322 3.0 12.0 0.00 0.00 0.00 40 1007.6
20260504194405 79 163 5.0 15.0 0.00 0.00 0.00 39 1007.6
20260504193904 79 187 2.0 12.0 0.00 0.00 0.00 38 1007.6
20260504192904 81 214 2.0 14.0 0.00 0.00 0.00 37 1007.4
20260504191905 82 162 2.0 7.0 0.00 0.00 0.00 37 1007.3
20260504191404 81 228 3.0 14.0 0.00 0.00 0.00 37 1007.5
20260504190404 81 290 1.0 8.0 0.00 0.00 0.00 38 1007.7
20260504185904 80 273 3.0 16.0 0.00 0.00 0.00 36 1007.7
20260504185405 80 268 5.0 18.0 0.00 0.00 0.00 36 1007.8
20260504184904 80 201 2.0 12.0 0.00 0.00 0.00 38 1007.8
20260504184404 79 195 3.0 16.0 0.00 0.00 0.00 39 1007.9
20260504183904 79 192 5.0 13.0 0.00 0.00 0.00 39 1007.9
20260504183404 79 314 1.0 15.0 0.00 0.00 0.00 38 1008.0
20260504182905 79 279 1.0 8.0 0.00 0.00 0.00 39 1008.1
20260504182405 79 183 5.0 20.0 0.00 0.00 0.00 38 1008.2
20260504181405 79 213 1.0 12.0 0.00 0.00 0.00 38 1008.3
20260504180905 79 226 6.0 16.0 0.00 0.00 0.00 37 1008.4
20260504180404 79 333 3.0 21.0 0.00 0.00 0.00 37 1008.4
20260504175904 79 293 3.0 12.0 0.00 0.00 0.00 38 1008.5
20260504174904 79 278 1.0 2.0 0.00 0.00 0.00 40 1008.5
20260504173404 78 266 3.0 10.0 0.00 0.00 0.00 42 1008.7
20260504172904 78 204 1.0 16.0 0.00 0.00 0.00 44 1008.8
20260504172405 78 172 1.0 16.0 0.00 0.00 0.00 43 1008.8
20260504171904 78 206 1.0 9.0 0.00 0.00 0.00 44 1008.9
20260504171405 77 257 4.0 20.0 0.00 0.00 0.00 42 1009.1
20260504170904 78 280 4.0 15.0 0.00 0.00 0.00 42 1009.2
20260504170404 78 223 3.0 14.0 0.00 0.00 0.00 43 1009.2
20260504160404 75 140 4.0 13.0 0.00 0.00 0.00 50 1009.8
20260504150904 71 195 2.0 8.0 0.00 0.00 0.00 54 1010.1
20260504150404 71 319 0.0 10.0 0.00 0.00 0.00 53 1010.1
20260504140904 66 181 3.0 12.0 0.00 0.00 0.00 59 1010.7
20260504140404 65 181 3.0 8.0 0.00 0.00 0.00 59 1010.7